Location: Bagnolo San Vito
(45.0833°N, 10.8833°E)
Time: 14:16:18
(UTC+00:00)

SJ-6B - Pass Details

Date: 03 March 2021
Orbit: 509 x 581 km, 97.6° (Epoch: 13 April)

Event Time Altitude Azimuth Distance (km) Brightness Sun altitude
Exits shadow 19:23:03 47° 213° (SSW) 763 3.5 -24.6°
Maximum altitude 19:23:52 58° 259° (W) 674 3.4 -24.8°
Drops below altitude 10° 19:27:54 10° 340° (NNW) 1,878 6.0 -25.5°
Sets 19:30:04 0° 344° (NNW) 2,769 6.9 -25.8°
